Location: Arena
(42.5007°N, 9.4650°E)
Time: 13:38:07
(UTC+00:00)

Cosmos 2322 Rocket - Pass Details

Date: 09 April 2020
Orbit: 834 x 849 km, 71.0° (Epoch: 26 May)

Event Time Altitude Azimuth Distance (km) Brightness Sun altitude
Rises 21:36:44 0° 345° (NNW) 3,403 6.3 -33.9°
Reaches altitude 10° 21:39:43 10° 359° (N) 2,461 5.2 -34.2°
Enters shadow 21:42:52 21° 32° (NNE) 1,783 4.1 -34.5°
